Baudette, MN

12:15 PM CDT on September 30, 2016 (GMT -0500)
Baudette International

Weather History for KBDE - September, 2013

Change the Weather History Date:

Monday, September 9, 2013

  Actual Average Record
Temperature  
Mean Temperature 62 °F -  
Max Temperature 66 °F 70 °F 86 °F (2011)
Min Temperature 57 °F 46 °F 30 °F (1935)
Degree Days  
Heating Degree Days 4    
Growing Degree Days 12 (Base 50)    
Moisture  
Dew Point 61 °F    
Average Humidity 97    
Maximum Humidity 100    
Minimum Humidity 90    
Precipitation  
Precipitation 0.59 in - - ()
Sea Level Pressure  
Sea Level Pressure 29.75 in    
Wind  
Wind Speed 4 mph (NE)    
Max Wind Speed 10 mph    
Max Gust Speed -    
Visibility 4 miles    
Events Fog , Rain    
Averages and records for this station are not official NWS values.
T = Trace of Precipitation, MM = Missing Value Source: NWS Daily Summary

Daily Weather History Graph

Daily Weather History Graph

Search for Another Location

Airport or City:

Trip Planner

Search our weather history database for the weather conditions in past years. The results will help you decide how hot, cold, wet, or windy it might be!

Date:

Astronomy

Sep. 09, 2013 Rise Set
Actual Time 6:47 AM CDT 7:43 PM CDT
Civil Twilight 6:15 AM CDT 8:15 PM CDT
Nautical Twilight 5:36 AM CDT 8:53 PM CDT
Astronomical Twilight 4:55 AM CDT 9:34 PM CDT
Moon 11:35 AM CDT (9/9) 9:33 PM CDT (9/9)
Length of Visible Light 14h 00m
Length of Day
12h 56m
Waxing Crescent, 19% of the Moon is Illuminated
Sep 9
Waxing Crescent
Sep 12
First Quarter
Sep 19
Full
Sep 26
Last Quarter
Oct 4
New

Hourly Weather History & Observations

Time (CDT) Temp. Dew Point Humidity Pressure Visibility Wind Dir Wind Speed Gust Speed Precip Events Conditions
12:53 AM 57.9 °F 55.9 °F 93% 29.86 in 10.0 mi SE 5.8 mph - N/A   Overcast
1:53 AM 59.0 °F 57.0 °F 93% 29.87 in 10.0 mi Calm Calm - N/A   Overcast
2:15 AM 57.2 °F 57.2 °F 100% 29.86 in 10.0 mi Calm Calm - N/A   Overcast
2:53 AM 57.9 °F 57.9 °F 100% 29.85 in 3.0 mi ESE 4.6 mph - N/A   Overcast
3:04 AM 57.2 °F 57.2 °F 100% 29.85 in 2.0 mi Calm Calm - N/A   Overcast
3:13 AM 57.2 °F 57.2 °F 100% 29.85 in 1.5 mi Calm Calm - N/A   Overcast
3:53 AM 57.9 °F 57.9 °F 100% 29.82 in 1.5 mi ESE 5.8 mph - N/A   Overcast
4:37 AM 57.2 °F 57.2 °F 100% 29.81 in 2.0 mi ESE 4.6 mph - N/A   Overcast
4:53 AM 57.9 °F 57.9 °F 100% 29.81 in 1.2 mi ESE 5.8 mph - N/A   Overcast
5:07 AM 57.2 °F 57.2 °F 100% 29.80 in 1.5 mi ESE 4.6 mph - N/A   Overcast
5:42 AM 57.2 °F 57.2 °F 100% 29.81 in 1.2 mi Variable 5.8 mph - N/A   Overcast
5:53 AM 57.9 °F 57.9 °F 100% 29.82 in 1.2 mi SSE 4.6 mph - N/A   Overcast
6:02 AM 57.2 °F 57.2 °F 100% 29.81 in 1.0 mi Variable 3.5 mph - N/A   Overcast
6:11 AM 57.2 °F 57.2 °F 100% 29.82 in 0.8 mi SE 4.6 mph - N/A   Overcast
6:53 AM 59.0 °F 57.9 °F 96% 29.82 in 0.5 mi SE 3.5 mph - N/A Fog Fog
7:36 AM 59.0 °F 59.0 °F 100% 29.80 in 1.2 mi ESE 6.9 mph - 0.03 in Rain Rain
7:40 AM 59.0 °F 59.0 °F 100% 29.80 in 2.0 mi ESE 6.9 mph - 0.03 in Rain Light Rain
7:49 AM 59.0 °F 59.0 °F 100% 29.79 in 6.0 mi ESE 9.2 mph - 0.04 in Rain Light Rain
7:53 AM 59.0 °F 59.0 °F 100% 29.79 in 6.0 mi ESE 6.9 mph - 0.05 in Rain Light Rain
8:53 AM 59.0 °F 59.0 °F 100% 29.73 in 8.0 mi ESE 10.4 mph - 0.01 in   Overcast
9:53 AM 59.0 °F 59.0 °F 100% 29.71 in 7.0 mi ESE 6.9 mph - 0.03 in Rain Light Rain
10:39 AM 60.8 °F 59.0 °F 94% 29.72 in 6.0 mi ESE 4.6 mph - 0.04 in Rain Light Rain
10:53 AM 61.0 °F 59.0 °F 93% 29.73 in 7.0 mi SE 4.6 mph - 0.05 in Rain Light Rain
10:59 AM 60.8 °F 59.0 °F 94% 29.73 in 1.8 mi Calm Calm - 0.04 in Rain Heavy Rain
11:03 AM 60.8 °F 59.0 °F 94% 29.74 in 1.0 mi SSW 4.6 mph - 0.06 in Rain Heavy Rain
11:12 AM 60.8 °F 60.8 °F 100% 29.74 in 0.8 mi SSW 5.8 mph - 0.18 in Rain Heavy Rain
11:25 AM 60.8 °F 60.8 °F 100% 29.74 in 1.2 mi Calm Calm - 0.25 in Rain Heavy Rain
11:35 AM 60.8 °F 60.8 °F 100% 29.74 in 2.0 mi Calm Calm - 0.27 in Rain Light Rain
11:49 AM 60.8 °F 60.8 °F 100% 29.73 in 3.0 mi Calm Calm - 0.28 in Rain Light Rain
11:50 AM 61.0 °F 60.1 °F 97% 29.74 in 3.0 mi Calm Calm - 0.28 in Rain Light Rain
12:00 PM 60.8 °F 60.8 °F 100% 29.73 in 1.8 mi SSE 3.5 mph - 0.01 in Rain Light Rain
12:06 PM 60.8 °F 60.8 °F 100% 29.73 in 1.0 mi Calm Calm - 0.02 in Rain Rain
12:08 PM 60.8 °F 60.8 °F 100% 29.73 in 1.0 mi ESE 4.6 mph - 0.03 in Rain Rain
12:19 PM 62.6 °F 60.8 °F 94% 29.73 in 1.5 mi East 3.5 mph - 0.04 in Rain Light Rain
12:30 PM 62.6 °F 60.8 °F 94% 29.72 in 2.5 mi East 4.6 mph - 0.04 in Rain Light Rain
12:53 PM 62.1 °F 61.0 °F 96% 29.73 in 2.0 mi Calm Calm - 0.05 in Rain Light Rain
1:07 PM 62.6 °F 60.8 °F 94% 29.71 in 5.0 mi East 3.5 mph - 0.00 in   Overcast
1:53 PM 64.0 °F 62.1 °F 93% 29.71 in 10.0 mi East 4.6 mph - 0.00 in   Overcast
2:20 PM 64.4 °F 62.6 °F 94% 29.70 in 10.0 mi East 3.5 mph - N/A   Overcast
2:28 PM 64.4 °F 62.6 °F 94% 29.70 in 10.0 mi Calm Calm - N/A   Overcast
2:53 PM 66.0 °F 63.0 °F 90% 29.70 in 10.0 mi Calm Calm - N/A   Overcast
3:53 PM 66.9 °F 64.9 °F 93% 29.68 in 10.0 mi East 4.6 mph - 0.00 in   Overcast
4:53 PM 66.9 °F 64.9 °F 93% 29.68 in 10.0 mi Calm Calm - N/A   Overcast
5:00 PM 66.2 °F 64.4 °F 94% 29.68 in 10.0 mi ENE 3.5 mph - N/A   Overcast
5:09 PM 66.2 °F 64.4 °F 94% 29.68 in 10.0 mi NE 3.5 mph - N/A   Overcast
5:46 PM 66.2 °F 64.4 °F 94% 29.68 in 10.0 mi North 3.5 mph - N/A   Overcast
5:53 PM 66.9 °F 64.9 °F 93% 29.69 in 8.0 mi North 3.5 mph - N/A   Overcast
6:09 PM 66.2 °F 64.4 °F 94% 29.69 in 1.8 mi North 3.5 mph - N/A   Overcast
6:19 PM 66.2 °F 64.4 °F 94% 29.69 in 1.2 mi North 5.8 mph - 0.01 in Rain Light Rain
6:26 PM 66.2 °F 64.4 °F 94% 29.68 in 1.0 mi NNE 4.6 mph - 0.01 in Rain Light Rain
6:49 PM 66.2 °F 64.4 °F 94% 29.69 in 1.5 mi NNE 4.6 mph - 0.03 in   Overcast
6:50 PM 66.0 °F 64.9 °F 96% 29.70 in 1.5 mi North 4.6 mph - 0.03 in   Overcast
7:13 PM 64.4 °F 64.4 °F 100% 29.70 in 1.5 mi North 4.6 mph - N/A   Overcast
7:36 PM 64.4 °F 64.4 °F 100% 29.71 in 2.5 mi NNW 6.9 mph - 0.01 in   Overcast
7:43 PM 64.4 °F 64.4 °F 100% 29.71 in 3.0 mi North 6.9 mph - 0.01 in   Overcast
7:49 PM 64.4 °F 64.4 °F 100% 29.71 in 2.5 mi North 6.9 mph - 0.01 in Rain Light Rain
7:53 PM 64.9 °F 64.0 °F 97% 29.72 in 2.5 mi North 5.8 mph - 0.02 in Rain Light Rain
8:18 PM 64.4 °F 64.4 °F 100% 29.71 in 4.0 mi North 5.8 mph - 0.01 in   Overcast
8:53 PM 64.0 °F 64.0 °F 100% 29.73 in 4.0 mi North 4.6 mph - 0.01 in   Overcast
9:03 PM 64.4 °F 64.4 °F 100% 29.72 in 4.0 mi North 4.6 mph - N/A   Overcast
9:24 PM 64.4 °F 62.6 °F 94% 29.73 in 2.5 mi NNW 6.9 mph - 0.01 in Rain Light Rain
9:39 PM 64.4 °F 62.6 °F 94% 29.73 in 2.0 mi North 8.1 mph - 0.03 in Rain Light Rain
9:53 PM 64.0 °F 63.0 °F 96% 29.73 in 2.5 mi North 6.9 mph - 0.04 in Rain Light Rain
10:10 PM 62.6 °F 62.6 °F 100% 29.72 in 2.5 mi North 8.1 mph - 0.01 in Rain Light Rain
10:20 PM 62.6 °F 62.6 °F 100% 29.73 in 4.0 mi North 6.9 mph - 0.01 in Rain Light Rain
10:27 PM 62.6 °F 62.6 °F 100% 29.73 in 4.0 mi North 8.1 mph - 0.01 in   Overcast
10:53 PM 63.0 °F 62.1 °F 97% 29.74 in 5.0 mi North 6.9 mph - 0.02 in   Overcast
11:10 PM 62.6 °F 62.6 °F 100% 29.73 in 10.0 mi North 6.9 mph - N/A   Overcast
11:31 PM 62.6 °F 62.6 °F 100% 29.74 in 2.5 mi North 6.9 mph - N/A   Overcast
11:43 PM 62.6 °F 62.6 °F 100% 29.74 in 3.0 mi North 5.8 mph - N/A   Overcast
11:53 PM 62.1 °F 62.1 °F 100% 29.75 in 3.0 mi North 6.9 mph - N/A   Overcast